• In Hungary
  • List of Countries
  • For 7 days
  • Water Temperature
  • Satellite Maps
  • Weather Map
  • News
  • Weather Widgets
  • user-avatar
    Login

    Hourly Weather Churapanovo

    Today, 26 September, Wednesday

    Time Temperature Precipitation Wind Pressure Humidity
    00:00 +13°C° 0.1 mm 4 mps 751 mmHg 75%
    01:00 +13°C° 0.1 mm 4 mps 751 mmHg 76%
    02:00 +13°C° 0 mm 4 mps 751 mmHg 72%
    03:00 +13°C° 0 mm 5 mps 751 mmHg 69%
    04:00 +13°C° 0 mm 5 mps 751 mmHg 68%
    05:00 +13°C° 0.1 mm 6 mps 751 mmHg 69%
    06:00 +13°C° 0.1 mm 6 mps 751 mmHg 69%
    07:00 +13°C° 0.1 mm 6 mps 751 mmHg 70%
    08:00 +13°C° 0.1 mm 6 mps 752 mmHg 69%
    09:00 +14°C° 0.1 mm 6 mps 752 mmHg 68%
    10:00 +14°C° 0.1 mm 6 mps 752 mmHg 67%
    11:00 +13°C° 0.4 mm 6 mps 752 mmHg 70%
    12:00 +13°C° 0.4 mm 5 mps 753 mmHg 74%
    13:00 +13°C° 0.4 mm 5 mps 753 mmHg 77%
    14:00 +12°C° 1.2 mm 5 mps 753 mmHg 81%
    15:00 +12°C° 1.2 mm 5 mps 753 mmHg 85%
    16:00 +12°C° 1.2 mm 4 mps 753 mmHg 88%
    17:00 +11°C° 0.2 mm 4 mps 754 mmHg 90%
    18:00 +11°C° 0.2 mm 3 mps 754 mmHg 91%
    19:00 +11°C° 0.2 mm 3 mps 754 mmHg 93%
    20:00 +10°C° 0.1 mm 3 mps 754 mmHg 93%
    21:00 +10°C° 0.1 mm 2 mps 754 mmHg 92%
    22:00 +10°C° 0.1 mm 2 mps 754 mmHg 92%
    23:00 +10°C° 0.4 mm 2 mps 754 mmHg 92%

    Tomorrow, 27 September, Thursday

    Time Temperature Precipitation Wind Pressure Humidity
    00:00 +9°C° 0.4 mm 2 mps 754 mmHg 92%
    01:00 +9°C° 0.4 mm 2 mps 753 mmHg 93%
    02:00 +9°C° 0.4 mm 2 mps 753 mmHg 93%
    03:00 +8°C° 0.4 mm 2 mps 753 mmHg 93%
    04:00 +8°C° 0.4 mm 2 mps 753 mmHg 93%
    05:00 +8°C° 0.1 mm 2 mps 753 mmHg 91%
    06:00 +8°C° 0.1 mm 3 mps 752 mmHg 89%
    07:00 +8°C° 0.1 mm 3 mps 752 mmHg 87%
    08:00 +7°C° 0 mm 4 mps 752 mmHg 81%
    09:00 +8°C° 0 mm 4 mps 752 mmHg 75%
    10:00 +8°C° 0 mm 5 mps 752 mmHg 70%
    11:00 +9°C° 0 mm 5 mps 751 mmHg 67%
    12:00 +9°C° 0 mm 6 mps 751 mmHg 64%
    13:00 +9°C° 0 mm 6 mps 750 mmHg 62%
    14:00 +9°C° 0 mm 7 mps 750 mmHg 61%
    15:00 +10°C° 0 mm 7 mps 749 mmHg 60%
    16:00 +10°C° 0 mm 7 mps 749 mmHg 59%
    17:00 +9°C° 0 mm 6 mps 748 mmHg 62%
    18:00 +8°C° 0 mm 6 mps 748 mmHg 64%
    19:00 +7°C° 0 mm 5 mps 748 mmHg 66%
    20:00 +7°C° 0.1 mm 6 mps 747 mmHg 68%
    21:00 +7°C° 0.1 mm 6 mps 746 mmHg 69%
    22:00 +7°C° 0.1 mm 6 mps 746 mmHg 70%
    23:00 +5°C° 0.5 mm 6 mps 745 mmHg 74%

    Day after tomorrow, 28 September, Friday

    Time Temperature Precipitation Wind Pressure Humidity
    00:00 +5°C° 0.5 mm 7 mps 744 mmHg 78%
    01:00 +5°C° 0.5 mm 7 mps 743 mmHg 82%
    02:00 +4°C° 0.6 mm 7 mps 743 mmHg 84%
    03:00 +4°C° 0.6 mm 7 mps 742 mmHg 86%
    04:00 +4°C° 0.6 mm 6 mps 742 mmHg 87%
    05:00 +4°C° 0.2 mm 6 mps 742 mmHg 87%
    06:00 +4°C° 0.2 mm 6 mps 743 mmHg 87%
    07:00 +5°C° 0.2 mm 6 mps 743 mmHg 86%
    08:00 +5°C° 0.1 mm 7 mps 743 mmHg 84%
    09:00 +5°C° 0.1 mm 7 mps 744 mmHg 82%
    10:00 +5°C° 0.1 mm 7 mps 744 mmHg 79%
    11:00 +5°C° 0.1 mm 7 mps 745 mmHg 78%
    12:00 +6°C° 0.1 mm 7 mps 745 mmHg 76%
    13:00 +6°C° 0.1 mm 7 mps 746 mmHg 75%
    14:00 +6°C° 0 mm 7 mps 746 mmHg 74%
    15:00 +7°C° 0 mm 6 mps 746 mmHg 73%
    16:00 +8°C° 0 mm 6 mps 746 mmHg 72%
    17:00 +7°C° 0 mm 5 mps 746 mmHg 73%
    18:00 +7°C° 0 mm 5 mps 746 mmHg 74%
    19:00 +7°C° 0 mm 5 mps 746 mmHg 76%
    20:00 +7°C° 0.3 mm 6 mps 746 mmHg 78%
    21:00 +7°C° 0.3 mm 6 mps 745 mmHg 81%
    22:00 +6°C° 0.3 mm 7 mps 745 mmHg 84%
    23:00 +6°C° 0.4 mm 8 mps 744 mmHg 82%

    29 September, Saturday

    Time Temperature Precipitation Wind Pressure Humidity
    00:00 +7°C° 0.4 mm 8 mps 743 mmHg 81%
    01:00 +7°C° 0.4 mm 9 mps 742 mmHg 80%
    02:00 +8°C° 0.9 mm 9 mps 742 mmHg 81%
    03:00 +8°C° 0.9 mm 10 mps 741 mmHg 83%
    04:00 +8°C° 0.9 mm 10 mps 741 mmHg 84%
    05:00 +8°C° 0.6 mm 10 mps 741 mmHg 84%
    06:00 +8°C° 0.6 mm 9 mps 742 mmHg 84%
    07:00 +10°C° 0.6 mm 9 mps 743 mmHg 83%
    08:00 +8°C° 0.1 mm 9 mps 744 mmHg 80%
    09:00 +7°C° 0.1 mm 8 mps 745 mmHg 76%
    10:00 +7°C° 0.1 mm 8 mps 746 mmHg 73%
    11:00 +7°C° 0 mm 8 mps 746 mmHg 68%
    12:00 +9°C° 0 mm 8 mps 747 mmHg 64%
    13:00 +9°C° 0 mm 8 mps 748 mmHg 60%
    14:00 +7°C° 0 mm 8 mps 749 mmHg 61%
    15:00 +8°C° 0 mm 7 mps 749 mmHg 62%
    16:00 +6°C° 0 mm 7 mps 750 mmHg 63%
    17:00 +5°C° 0 mm 6 mps 751 mmHg 65%
    18:00 +5°C° 0 mm 5 mps 751 mmHg 67%
    19:00 +5°C° 0 mm 3 mps 752 mmHg 69%
    20:00 +4°C° 0 mm 3 mps 752 mmHg 70%
    21:00 +4°C° 0 mm 3 mps 753 mmHg 70%
    22:00 +4°C° 0 mm 3 mps 753 mmHg 71%
    23:00 +3°C° 0 mm 3 mps 753 mmHg 73%

    30 September, Sunday

    Time Temperature Precipitation Wind Pressure Humidity
    00:00 +3°C° 0 mm 3 mps 754 mmHg 75%
    01:00 +2°C° 0 mm 3 mps 754 mmHg 77%
    02:00 +2°C° 0 mm 3 mps 754 mmHg 78%
    03:00 +1°C° 0 mm 3 mps 754 mmHg 80%
    04:00 +1°C° 0 mm 3 mps 755 mmHg 82%
    05:00 +1°C° 0 mm 3 mps 755 mmHg 82%
    06:00 +1°C° 0 mm 3 mps 755 mmHg 81%
    07:00 +1°C° 0 mm 3 mps 755 mmHg 81%
    08:00 +2°C° 0 mm 3 mps 755 mmHg 77%
    09:00 +3°C° 0 mm 3 mps 755 mmHg 74%
    10:00 +4°C° 0 mm 3 mps 755 mmHg 70%
    11:00 +5°C° 0 mm 3 mps 755 mmHg 69%
    12:00 +5°C° 0 mm 3 mps 755 mmHg 68%
    13:00 +7°C° 0 mm 3 mps 755 mmHg 67%
    14:00 +7°C° 0 mm 3 mps 755 mmHg 68%
    15:00 +7°C° 0 mm 2 mps 755 mmHg 69%
    16:00 +7°C° 0 mm 2 mps 755 mmHg 69%
    17:00 +6°C° 0.1 mm 2 mps 755 mmHg 74%
    18:00 +7°C° 0.1 mm 1 mps 755 mmHg 78%
    19:00 +6°C° 0.1 mm 1 mps 755 mmHg 82%
    20:00 +6°C° 0.1 mm 1 mps 755 mmHg 84%
    21:00 +5°C° 0.1 mm 1 mps 755 mmHg 86%
    22:00 +5°C° 0.1 mm 1 mps 755 mmHg 88%
    23:00 +5°C° 0.1 mm 1 mps 755 mmHg 89%

    1 October, Monday

    Time Temperature Precipitation Wind Pressure Humidity
    00:00 +4°C° 0.1 mm 2 mps 754 mmHg 90%
    01:00 +4°C° 0.1 mm 2 mps 754 mmHg 91%
    02:00 +3°C° 0.1 mm 2 mps 754 mmHg 91%
    03:00 +3°C° 0.1 mm 2 mps 754 mmHg 91%
    04:00 +3°C° 0.1 mm 2 mps 755 mmHg 90%
    05:00 +3°C° 0 mm 2 mps 755 mmHg 89%
    06:00 +2°C° 0 mm 2 mps 755 mmHg 88%
    07:00 +1°C° 0 mm 3 mps 755 mmHg 87%
    08:00 +2°C° 0 mm 3 mps 755 mmHg 80%
    09:00 +3°C° 0 mm 4 mps 755 mmHg 72%
    10:00 +4°C° 0 mm 4 mps 755 mmHg 65%
    11:00 +4°C° 0 mm 4 mps 755 mmHg 61%
    12:00 +5°C° 0 mm 4 mps 756 mmHg 58%
    13:00 +5°C° 0 mm 4 mps 756 mmHg 55%
    14:00 +5°C° 0 mm 4 mps 756 mmHg 54%
    15:00 +5°C° 0 mm 4 mps 756 mmHg 54%
    16:00 +6°C° 0 mm 4 mps 756 mmHg 53%
    17:00 +5°C° 0 mm 3 mps 756 mmHg 59%
    18:00 +3°C° 0 mm 3 mps 756 mmHg 64%
    19:00 +3°C° 0 mm 2 mps 756 mmHg 70%
    20:00 +4°C° 0 mm 2 mps 756 mmHg 70%
    21:00 +3°C° 0 mm 3 mps 757 mmHg 70%
    22:00 +3°C° 0 mm 3 mps 757 mmHg 70%
    23:00 +4°C° 0 mm 3 mps 757 mmHg 73%
    Show more